Location: ?????
(31.8092°N, 35.2590°E)
Time: 20:33:00
(UTC+00:00)

Cosmos 2233 Rocket - Pass Details

Date: 20 June 2021
Orbit: 953 x 990 km, 82.9° (Epoch: 23 July)

Event Time Altitude Azimuth Distance (km) Brightness Sun altitude
Rises 19:52:23 0° 353° (N) 3,639 8.0 -29.0°
Reaches altitude 10° 19:54:53 10° 353° (N) 2,694 7.1 -29.2°
Enters shadow 20:01:02 85° 274° (W) 970 3.8 -29.8°
